Time,TemperatureF,DewpointF,PressureIn,WindDirection,WindDirectionDegrees,WindSpeedMPH,WindSpeedGustMPH,Humidity,HourlyPrecipIn,Conditions,Clouds,dailyrainin,SoftwareType,DateUTC
2013-05-08 00:01:00,66.8,54.3,29.94,West,270,0.0,0.0,64,0.00,,,0.00,WSDL version 420,2013-05-08 04:01:00,
2013-05-08 00:06:00,66.7,54.3,29.94,West,270,0.0,0.0,65,0.00,,,0.00,WSDL version 420,2013-05-08 04:06:00,
2013-05-08 00:11:00,66.7,54.5,29.94,West,270,0.0,0.0,65,0.00,,,0.00,WSDL version 420,2013-05-08 04:11:00,
2013-05-08 00:16:00,66.5,54.4,29.94,West,270,0.0,0.0,65,0.00,,,0.00,WSDL version 420,2013-05-08 04:16:00,
2013-05-08 00:21:00,66.4,54.6,29.94,West,270,0.0,0.0,66,0.00,,,0.00,WSDL version 420,2013-05-08 04:21:00,
2013-05-08 00:26:00,66.2,54.6,29.94,West,270,0.0,0.0,66,0.00,,,0.00,WSDL version 420,2013-05-08 04:26:00,
2013-05-08 00:31:00,66.2,54.9,29.94,West,270,0.0,0.0,67,0.00,,,0.00,WSDL version 420,2013-05-08 04:31:00,
2013-05-08 00:36:00,66.1,55.1,29.94,West,270,0.0,0.0,68,0.00,,,0.00,WSDL version 420,2013-05-08 04:36:00,
2013-05-08 00:41:00,65.9,55.0,29.94,West,270,0.0,0.0,68,0.00,,,0.00,WSDL version 420,2013-05-08 04:41:00,
2013-05-08 00:46:00,65.7,54.8,29.94,West,270,0.0,0.0,68,0.00,,,0.00,WSDL version 420,2013-05-08 04:46:00,
2013-05-08 00:51:00,65.5,55.1,29.94,West,270,0.0,0.0,69,0.00,,,0.00,WSDL version 420,2013-05-08 04:51:00,
2013-05-08 00:56:00,65.5,55.1,29.94,West,270,0.0,0.0,69,0.00,,,0.00,WSDL version 420,2013-05-08 04:56:00,
2013-05-08 01:01:00,65.5,55.1,29.94,West,270,0.0,0.0,69,0.00,,,0.00,WSDL version 420,2013-05-08 05:01:00,
2013-05-08 01:06:00,65.3,54.9,29.94,West,270,0.0,0.0,69,0.00,,,0.00,WSDL version 420,2013-05-08 05:06:00,
2013-05-08 01:11:00,65.3,55.1,29.94,West,270,0.0,0.0,70,0.00,,,0.00,WSDL version 420,2013-05-08 05:11:00,
2013-05-08 01:16:00,64.9,54.9,29.97,WSW,248,0.0,0.0,70,0.00,,,0.00,WSDL version 420,2013-05-08 05:16:00,
2013-05-08 01:21:00,64.9,54.9,29.97,WSW,248,0.0,0.0,70,0.00,,,0.00,WSDL version 420,2013-05-08 05:21:00,
2013-05-08 01:26:00,64.8,55.2,29.97,WSW,248,0.0,0.0,71,0.00,,,0.00,WSDL version 420,2013-05-08 05:26:00,
2013-05-08 01:31:00,64.7,55.1,29.97,WSW,248,0.0,0.0,71,0.00,,,0.00,WSDL version 420,2013-05-08 05:31:00,
2013-05-08 01:36:00,64.4,54.8,29.97,WSW,248,0.0,0.0,71,0.00,,,0.00,WSDL version 420,2013-05-08 05:36:00,
2013-05-08 01:41:00,64.4,54.8,29.97,WSW,248,0.0,0.0,71,0.00,,,0.00,WSDL version 420,2013-05-08 05:41:00,
2013-05-08 01:46:00,64.4,55.2,29.97,WSW,248,0.0,0.0,72,0.00,,,0.00,WSDL version 420,2013-05-08 05:46:00,
2013-05-08 01:51:00,64.2,55.0,29.97,WSW,248,0.0,0.0,72,0.00,,,0.00,WSDL version 420,2013-05-08 05:51:00,
2013-05-08 01:56:00,64.0,55.0,29.97,WSW,248,0.0,0.0,73,0.00,,,0.00,WSDL version 420,2013-05-08 05:56:00,
2013-05-08 02:01:00,63.7,54.9,29.97,WSW,248,0.0,0.0,73,0.00,,,0.00,WSDL version 420,2013-05-08 06:01:00,
2013-05-08 02:06:00,63.5,54.7,29.97,WSW,248,0.0,0.0,73,0.00,,,0.00,WSDL version 420,2013-05-08 06:06:00,
2013-05-08 02:11:00,63.3,54.5,29.97,WSW,248,0.0,0.0,73,0.00,,,0.00,WSDL version 420,2013-05-08 06:11:00,
2013-05-08 02:16:00,63.2,54.8,29.97,WSW,248,0.0,0.0,74,0.00,,,0.00,WSDL version 420,2013-05-08 06:16:00,
2013-05-08 02:21:00,63.1,54.8,29.97,WSW,248,0.0,0.0,75,0.00,,,0.00,WSDL version 420,2013-05-08 06:21:00,
2013-05-08 02:26:00,63.0,55.0,29.97,WSW,248,0.0,0.0,75,0.00,,,0.00,WSDL version 420,2013-05-08 06:26:00,
2013-05-08 02:31:00,63.0,54.9,29.97,North,0,0.0,0.0,75,0.00,,,0.00,WSDL version 420,2013-05-08 06:31:00,
2013-05-08 02:36:00,62.8,54.7,29.97,WSW,248,0.0,0.0,75,0.00,,,0.00,WSDL version 420,2013-05-08 06:36:00,
2013-05-08 02:41:00,62.6,54.6,29.97,WSW,248,0.0,0.0,75,0.00,,,0.00,WSDL version 420,2013-05-08 06:41:00,
2013-05-08 02:46:00,62.5,54.9,29.97,WSW,248,0.0,0.0,76,0.00,,,0.00,WSDL version 420,2013-05-08 06:46:00,
2013-05-08 02:51:00,62.3,54.6,29.97,WSW,248,0.0,0.0,76,0.00,,,0.00,WSDL version 420,2013-05-08 06:51:00,
2013-05-08 02:56:00,62.2,54.9,29.97,WSW,248,0.0,0.0,77,0.00,,,0.00,WSDL version 420,2013-05-08 06:56:00,
2013-05-08 03:01:00,62.2,54.9,29.97,WSW,248,0.0,0.0,77,0.00,,,0.00,WSDL version 420,2013-05-08 07:01:00,
2013-05-08 03:06:00,62.1,54.8,29.97,WSW,248,0.0,0.0,77,0.00,,,0.00,WSDL version 420,2013-05-08 07:06:00,
2013-05-08 03:11:00,62.0,54.7,29.97,WSW,248,0.0,0.0,77,0.00,,,0.00,WSDL version 420,2013-05-08 07:11:00,
2013-05-08 03:16:00,61.9,54.7,29.97,WSW,248,0.0,0.0,78,0.00,,,0.00,WSDL version 420,2013-05-08 07:16:00,
2013-05-08 03:21:00,61.8,54.8,29.97,WSW,248,0.0,0.0,78,0.00,,,0.00,WSDL version 420,2013-05-08 07:21:00,
2013-05-08 03:26:00,61.7,54.8,29.97,WSW,248,0.0,0.0,78,0.00,,,0.00,WSDL version 420,2013-05-08 07:26:00,
2013-05-08 03:31:00,61.6,54.6,29.97,WSW,248,0.0,0.0,78,0.00,,,0.00,WSDL version 420,2013-05-08 07:31:00,
2013-05-08 03:36:00,61.5,54.7,29.97,WSW,248,0.0,0.0,79,0.00,,,0.00,WSDL version 420,2013-05-08 07:36:00,
2013-05-08 03:41:00,61.5,55.0,29.97,WSW,248,0.0,0.0,79,0.00,,,0.00,WSDL version 420,2013-05-08 07:41:00,
2013-05-08 03:46:00,61.5,54.9,29.97,WSW,248,0.0,0.0,79,0.00,,,0.00,WSDL version 420,2013-05-08 07:46:00,
2013-05-08 03:51:00,61.3,54.8,29.97,WSW,248,0.0,0.0,79,0.00,,,0.00,WSDL version 420,2013-05-08 07:51:00,
2013-05-08 03:56:00,61.3,54.8,29.97,WSW,248,0.0,0.0,79,0.00,,,0.00,WSDL version 420,2013-05-08 07:56:00,
2013-05-08 04:01:00,61.3,54.8,29.97,WSW,248,0.0,0.0,79,0.00,,,0.00,WSDL version 420,2013-05-08 08:01:00,
2013-05-08 04:06:00,61.3,55.0,29.97,WSW,248,0.0,0.0,80,0.00,,,0.00,WSDL version 420,2013-05-08 08:06:00,
2013-05-08 04:11:00,61.3,55.1,29.97,WSW,248,0.0,0.0,80,0.00,,,0.00,WSDL version 420,2013-05-08 08:11:00,
2013-05-08 04:16:00,61.3,55.0,29.97,WSW,248,0.0,0.0,80,0.00,,,0.00,WSDL version 420,2013-05-08 08:16:00,
2013-05-08 04:21:00,61.1,54.9,29.97,WSW,248,0.0,0.0,80,0.00,,,0.00,WSDL version 420,2013-05-08 08:21:00,
2013-05-08 04:26:00,61.0,54.8,29.97,WSW,248,0.0,0.0,80,0.00,,,0.00,WSDL version 420,2013-05-08 08:26:00,
2013-05-08 04:31:00,61.0,54.8,29.94,WSW,248,0.0,0.0,80,0.00,,,0.00,WSDL version 420,2013-05-08 08:31:00,
2013-05-08 04:36:00,61.0,54.8,29.94,WSW,248,0.0,0.0,80,0.00,,,0.00,WSDL version 420,2013-05-08 08:36:00,
2013-05-08 04:41:00,60.8,54.6,29.94,WSW,248,0.0,0.0,80,0.00,,,0.00,WSDL version 420,2013-05-08 08:41:00,
2013-05-08 04:46:00,60.8,55.0,29.94,WSW,248,0.0,0.0,81,0.00,,,0.00,WSDL version 420,2013-05-08 08:46:00,
2013-05-08 04:51:00,60.7,54.9,29.94,WSW,248,0.0,0.0,81,0.00,,,0.00,WSDL version 420,2013-05-08 08:51:00,
2013-05-08 04:56:00,60.6,54.8,29.94,North,0,0.0,0.0,81,0.00,,,0.00,WSDL version 420,2013-05-08 08:56:00,
2013-05-08 05:01:00,60.4,54.6,29.94,North,0,0.0,0.0,81,0.00,,,0.00,WSDL version 420,2013-05-08 09:01:00,
2013-05-08 05:06:00,60.4,54.6,29.94,North,-999,-999.0,-999.0,81,0.00,,,0.00,WSDL version 420,2013-05-08 09:06:00,
2013-05-08 05:11:00,60.4,55.0,29.94,North,-999,-999.0,-999.0,82,0.00,,,0.00,WSDL version 420,2013-05-08 09:11:00,
2013-05-08 05:16:00,60.3,54.8,29.97,North,-999,-999.0,-999.0,82,0.00,,,0.00,WSDL version 420,2013-05-08 09:16:00,
2013-05-08 05:21:00,60.3,54.8,29.97,North,-999,-999.0,-999.0,82,0.00,,,0.00,WSDL version 420,2013-05-08 09:21:00,
2013-05-08 05:26:00,60.3,54.8,29.97,North,-999,-999.0,-999.0,82,0.00,,,0.00,WSDL version 420,2013-05-08 09:26:00,
2013-05-08 05:31:00,60.3,54.8,29.97,North,-999,-999.0,-999.0,82,0.00,,,0.00,WSDL version 420,2013-05-08 09:31:00,
2013-05-08 05:36:00,60.3,54.8,29.97,North,-999,-999.0,-999.0,82,0.00,,,0.00,WSDL version 420,2013-05-08 09:36:00,
2013-05-08 05:41:00,60.2,54.8,29.97,North,-999,-999.0,-999.0,82,0.00,,,0.00,WSDL version 420,2013-05-08 09:41:00,
2013-05-08 05:46:00,60.1,54.7,29.97,North,-999,-999.0,-999.0,82,0.00,,,0.00,WSDL version 420,2013-05-08 09:46:00,
2013-05-08 05:51:00,60.1,54.6,29.97,North,-999,-999.0,-999.0,82,0.00,,,0.00,WSDL version 420,2013-05-08 09:51:00,
2013-05-08 05:56:00,60.1,54.6,29.97,North,-999,-999.0,-999.0,82,0.00,,,0.00,WSDL version 420,2013-05-08 09:56:00,
2013-05-08 06:01:00,60.1,54.6,29.97,North,-999,-999.0,-999.0,82,0.00,,,0.00,WSDL version 420,2013-05-08 10:01:00,
2013-05-08 06:06:00,60.1,54.8,29.97,North,-999,-999.0,-999.0,83,0.00,,,0.00,WSDL version 420,2013-05-08 10:06:00,
2013-05-08 06:11:00,60.1,55.0,29.97,North,-999,-999.0,-999.0,83,0.00,,,0.00,WSDL version 420,2013-05-08 10:11:00,
2013-05-08 06:16:00,60.1,55.0,30.00,North,-999,-999.0,-999.0,83,0.00,,,0.00,WSDL version 420,2013-05-08 10:16:00,
2013-05-08 06:21:00,59.9,54.8,30.00,North,-999,-999.0,-999.0,82,0.00,,,0.00,WSDL version 420,2013-05-08 10:21:00,
2013-05-08 06:26:00,59.9,54.6,30.00,North,-999,-999.0,-999.0,83,0.00,,,0.00,WSDL version 420,2013-05-08 10:26:00,
2013-05-08 06:31:00,59.9,54.8,30.00,North,-999,-999.0,-999.0,83,0.00,,,0.00,WSDL version 420,2013-05-08 10:31:00,
2013-05-08 06:36:00,59.9,54.8,30.00,WSW,248,0.0,0.0,83,0.00,,,0.00,WSDL version 420,2013-05-08 10:36:00,
2013-05-08 06:41:00,59.9,54.8,30.00,WSW,248,0.0,0.0,83,0.00,,,0.00,WSDL version 420,2013-05-08 10:41:00,
2013-05-08 06:46:00,59.9,54.8,30.00,WSW,248,0.0,0.0,83,0.00,,,0.00,WSDL version 420,2013-05-08 10:46:00,
2013-05-08 06:51:00,59.9,54.9,30.00,North,0,0.0,0.0,83,0.00,,,0.00,WSDL version 420,2013-05-08 10:51:00,
2013-05-08 06:56:00,60.1,55.0,30.00,North,0,0.0,0.0,83,0.00,,,0.00,WSDL version 420,2013-05-08 10:56:00,
2013-05-08 07:01:00,60.1,55.0,30.03,North,-999,-999.0,-999.0,83,0.00,,,0.00,WSDL version 420,2013-05-08 11:01:00,
2013-05-08 07:06:00,60.2,55.1,30.03,North,-999,-999.0,-999.0,83,0.00,,,0.00,WSDL version 420,2013-05-08 11:06:00,
2013-05-08 07:11:00,60.4,55.6,30.03,North,-999,-999.0,-999.0,84,0.00,,,0.00,WSDL version 420,2013-05-08 11:11:00,
2013-05-08 07:16:00,60.5,55.8,30.03,WSW,248,0.0,0.0,84,0.00,,,0.00,WSDL version 420,2013-05-08 11:16:00,
2013-05-08 07:21:00,60.8,56.1,30.03,SW,214,0.0,0.0,84,0.00,,,0.00,WSDL version 420,2013-05-08 11:21:00,
2013-05-08 07:26:00,61.1,56.4,30.03,South,180,0.0,0.0,84,0.00,,,0.00,WSDL version 420,2013-05-08 11:26:00,
2013-05-08 07:31:00,61.3,56.6,30.03,South,180,0.0,0.0,84,0.00,,,0.00,WSDL version 420,2013-05-08 11:31:00,
2013-05-08 07:36:00,61.6,57.2,30.03,South,180,0.0,0.0,86,0.00,,,0.00,WSDL version 420,2013-05-08 11:36:00,
2013-05-08 07:41:00,61.9,57.6,30.03,South,180,0.0,0.0,86,0.00,,,0.00,WSDL version 420,2013-05-08 11:41:00,
2013-05-08 07:46:00,62.4,58.0,30.03,South,180,0.0,0.0,86,0.00,,,0.00,WSDL version 420,2013-05-08 11:46:00,
2013-05-08 07:51:00,62.8,58.4,30.03,South,180,0.0,0.0,86,0.00,,,0.00,WSDL version 420,2013-05-08 11:51:00,
2013-05-08 07:56:00,63.4,59.0,30.03,South,180,0.0,0.0,86,0.00,,,0.00,WSDL version 420,2013-05-08 11:56:00,
2013-05-08 08:01:00,64.0,59.6,30.00,South,180,0.0,0.0,86,0.00,,,0.00,WSDL version 420,2013-05-08 12:01:00,
2013-05-08 08:06:00,64.7,59.9,30.00,South,180,0.0,0.0,84,0.00,,,0.00,WSDL version 420,2013-05-08 12:06:00,
2013-05-08 08:11:00,65.5,60.7,30.00,South,180,0.0,1.1,84,0.00,,,0.00,WSDL version 420,2013-05-08 12:11:00,
2013-05-08 08:16:00,66.2,61.1,30.03,South,191,0.4,1.1,83,0.00,,,0.00,WSDL version 420,2013-05-08 12:16:00,
2013-05-08 08:21:00,67.1,61.8,30.03,NNE,17,0.0,0.0,82,0.00,,,0.00,WSDL version 420,2013-05-08 12:21:00,
2013-05-08 08:26:00,68.2,62.4,30.03,West,281,0.0,0.0,81,0.00,,,0.00,WSDL version 420,2013-05-08 12:26:00,
2013-05-08 08:31:00,70.3,63.9,30.03,NNE,23,0.0,0.0,79,0.00,,,0.00,WSDL version 420,2013-05-08 12:31:00,
2013-05-08 08:36:00,72.0,64.4,30.03,North,8,0.3,1.3,76,0.00,,,0.00,WSDL version 420,2013-05-08 12:36:00,
2013-05-08 08:41:00,74.1,64.3,30.03,NNE,23,0.0,1.3,70,0.00,,,0.00,WSDL version 420,2013-05-08 12:41:00,
2013-05-08 08:46:00,76.5,63.8,30.03,North,11,0.0,0.0,63,0.00,,,0.00,WSDL version 420,2013-05-08 12:46:00,
2013-05-08 08:51:00,78.0,62.5,30.03,NW,311,0.0,0.0,58,0.00,,,0.00,WSDL version 420,2013-05-08 12:51:00,
2013-05-08 08:56:00,79.3,62.1,30.03,WNW,293,0.0,0.0,54,0.00,,,0.00,WSDL version 420,2013-05-08 12:56:00,
2013-05-08 09:01:00,80.2,61.2,30.06,NW,324,0.0,2.7,50,0.00,,,0.00,WSDL version 420,2013-05-08 13:01:00,
2013-05-08 09:06:00,81.5,60.3,30.06,NE,39,0.0,2.7,48,0.00,,,0.00,WSDL version 420,2013-05-08 13:06:00,
2013-05-08 09:11:00,82.8,59.7,30.06,SSW,203,0.0,2.0,45,0.00,,,0.00,WSDL version 420,2013-05-08 13:11:00,
2013-05-08 09:16:00,83.7,59.5,30.06,South,189,0.4,1.6,42,0.00,,,0.00,WSDL version 420,2013-05-08 13:16:00,
2013-05-08 09:21:00,84.1,58.9,30.06,NNE,26,0.1,2.0,42,0.00,,,0.00,WSDL version 420,2013-05-08 13:21:00,
2013-05-08 09:26:00,85.1,58.6,30.06,NNE,19,0.0,2.7,41,0.00,,,0.00,WSDL version 420,2013-05-08 13:26:00,
2013-05-08 09:31:00,86.1,59.6,30.06,SSE,162,1.7,3.6,40,0.00,,,0.00,WSDL version 420,2013-05-08 13:31:00,
2013-05-08 09:36:00,86.7,59.3,30.06,SE,126,0.0,3.6,39,0.00,,,0.00,WSDL version 420,2013-05-08 13:36:00,
2013-05-08 09:41:00,86.5,58.4,30.06,North,4,1.6,2.5,39,0.00,,,0.00,WSDL version 420,2013-05-08 13:41:00,
2013-05-08 09:46:00,86.4,57.6,30.06,SSE,161,1.0,3.8,37,0.00,,,0.00,WSDL version 420,2013-05-08 13:46:00,
2013-05-08 09:51:00,86.4,56.8,30.06,North,8,0.4,3.8,35,0.00,,,0.00,WSDL version 420,2013-05-08 13:51:00,
2013-05-08 09:56:00,86.0,56.0,30.06,NE,35,0.9,3.4,37,0.00,,,0.00,WSDL version 420,2013-05-08 13:56:00,
2013-05-08 10:01:00,85.7,55.5,30.06,ENE,70,1.9,3.4,35,0.00,,,0.00,WSDL version 420,2013-05-08 14:01:00,
2013-05-08 10:06:00,85.7,56.2,30.06,North,354,0.8,2.5,37,0.00,,,0.00,WSDL version 420,2013-05-08 14:06:00,
2013-05-08 10:11:00,85.8,56.5,30.06,SSE,148,0.5,2.7,37,0.00,,,0.00,WSDL version 420,2013-05-08 14:11:00,
2013-05-08 10:16:00,85.6,56.8,30.06,SSE,150,3.0,4.3,37,0.00,,,0.00,WSDL version 420,2013-05-08 14:16:00,
2013-05-08 10:21:00,85.3,55.7,30.06,SE,138,2.5,4.3,36,0.00,,,0.00,WSDL version 420,2013-05-08 14:21:00,
2013-05-08 10:26:00,85.2,55.3,30.06,SSE,167,2.0,4.3,36,0.00,,,0.00,WSDL version 420,2013-05-08 14:26:00,
2013-05-08 10:31:00,85.2,55.7,30.06,South,169,0.7,4.3,37,0.00,,,0.00,WSDL version 420,2013-05-08 14:31:00,
2013-05-08 10:36:00,84.8,54.6,30.06,NNW,341,1.7,4.0,36,0.00,,,0.00,WSDL version 420,2013-05-08 14:36:00,
2013-05-08 10:41:00,84.4,55.4,30.06,West,264,1.0,3.4,37,0.00,,,0.00,WSDL version 420,2013-05-08 14:41:00,
2013-05-08 10:46:00,83.7,54.2,30.06,ESE,120,1.1,2.5,36,0.00,,,0.00,WSDL version 420,2013-05-08 14:46:00,
2013-05-08 10:51:00,82.7,54.8,30.06,WSW,254,0.9,7.2,39,0.00,,,0.00,WSDL version 420,2013-05-08 14:51:00,
2013-05-08 10:56:00,82.4,54.9,30.06,SE,128,0.6,7.2,39,0.00,,,0.00,WSDL version 420,2013-05-08 14:56:00,
2013-05-08 11:01:00,82.2,54.6,30.06,SW,229,1.1,3.1,38,0.00,,,0.00,WSDL version 420,2013-05-08 15:01:00,
2013-05-08 11:06:00,81.9,53.8,30.06,South,180,0.4,3.1,38,0.00,,,0.00,WSDL version 420,2013-05-08 15:06:00,
2013-05-08 11:11:00,81.6,52.9,30.06,ENE,74,0.4,2.5,37,0.00,,,0.00,WSDL version 420,2013-05-08 15:11:00,
2013-05-08 11:16:00,81.4,53.1,30.06,SSE,167,2.9,6.0,39,0.00,,,0.00,WSDL version 420,2013-05-08 15:16:00,
2013-05-08 11:21:00,81.8,54.1,30.06,SSE,151,2.3,6.0,38,0.00,,,0.00,WSDL version 420,2013-05-08 15:21:00,
2013-05-08 11:26:00,82.0,53.4,30.06,South,180,2.7,5.8,38,0.00,,,0.00,WSDL version 420,2013-05-08 15:26:00,
2013-05-08 11:31:00,82.0,53.0,30.03,WNW,293,2.1,5.8,37,0.00,,,0.00,WSDL version 420,2013-05-08 15:31:00,
2013-05-08 11:36:00,81.9,52.8,30.03,South,184,3.7,6.0,37,0.00,,,0.00,WSDL version 420,2013-05-08 15:36:00,
2013-05-08 11:41:00,82.3,53.7,30.03,SE,141,1.4,6.0,38,0.00,,,0.00,WSDL version 420,2013-05-08 15:41:00,
2013-05-08 11:46:00,82.6,53.9,30.06,SSE,165,3.2,6.5,38,0.00,,,0.00,WSDL version 420,2013-05-08 15:46:00,
2013-05-08 11:51:00,82.9,54.3,30.06,WSW,245,2.3,6.5,37,0.00,,,0.00,WSDL version 420,2013-05-08 15:51:00,
2013-05-08 11:56:00,83.1,55.1,30.06,SW,214,1.6,4.9,39,0.00,,,0.00,WSDL version 420,2013-05-08 15:56:00,
2013-05-08 12:01:00,83.4,55.1,30.06,East,86,1.9,3.4,37,0.00,,,0.00,WSDL version 420,2013-05-08 16:01:00,
2013-05-08 12:06:00,83.0,54.1,30.06,SE,126,1.5,3.4,37,0.00,,,0.00,WSDL version 420,2013-05-08 16:06:00,
2013-05-08 12:11:00,83.0,54.1,30.06,SSW,198,1.7,4.7,36,0.00,,,0.00,WSDL version 420,2013-05-08 16:11:00,
2013-05-08 12:16:00,83.5,54.7,30.03,South,174,2.5,4.7,37,0.00,,,0.00,WSDL version 420,2013-05-08 16:16:00,
2013-05-08 12:21:00,83.9,55.6,30.03,SW,214,1.7,4.3,38,0.00,,,0.00,WSDL version 420,2013-05-08 16:21:00,
2013-05-08 12:26:00,84.2,54.8,30.03,South,176,2.6,3.6,36,0.00,,,0.00,WSDL version 420,2013-05-08 16:26:00,
2013-05-08 12:31:00,84.5,54.6,30.03,SSE,164,3.9,6.5,36,0.00,,,0.00,WSDL version 420,2013-05-08 16:31:00,
2013-05-08 12:36:00,84.7,53.8,30.03,ENE,71,1.7,6.5,35,0.00,,,0.00,WSDL version 420,2013-05-08 16:36:00,
2013-05-08 12:41:00,84.6,53.8,30.03,North,6,2.2,2.9,35,0.00,,,0.00,WSDL version 420,2013-05-08 16:41:00,
2013-05-08 12:46:00,84.6,53.5,30.03,WNW,302,1.7,2.9,35,0.00,,,0.00,WSDL version 420,2013-05-08 16:46:00,
2013-05-08 12:51:00,84.9,54.0,30.03,South,171,2.1,3.8,35,0.00,,,0.00,WSDL version 420,2013-05-08 16:51:00,
2013-05-08 12:56:00,85.2,55.0,30.03,SSE,153,1.8,3.8,36,0.00,,,0.00,WSDL version 420,2013-05-08 16:56:00,
2013-05-08 13:01:00,85.5,55.2,30.03,SSW,212,2.2,4.0,36,0.00,,,0.00,WSDL version 420,2013-05-08 17:01:00,
2013-05-08 13:06:00,85.9,54.7,30.03,ESE,107,2.2,4.0,33,0.00,,,0.00,WSDL version 420,2013-05-08 17:06:00,
2013-05-08 13:11:00,85.8,54.2,30.03,SSE,158,2.9,6.0,34,0.00,,,0.00,WSDL version 420,2013-05-08 17:11:00,
2013-05-08 13:16:00,86.0,54.0,30.03,West,278,1.5,7.2,33,0.00,,,0.00,WSDL version 420,2013-05-08 17:16:00,
2013-05-08 13:21:00,86.1,54.0,30.03,South,172,2.7,7.2,34,0.00,,,0.00,WSDL version 420,2013-05-08 17:21:00,
2013-05-08 13:26:00,86.4,54.5,30.03,South,180,3.7,6.0,33,0.00,,,0.00,WSDL version 420,2013-05-08 17:26:00,
2013-05-08 13:31:00,86.6,54.1,30.03,NNE,17,1.7,6.0,33,0.00,,,0.00,WSDL version 420,2013-05-08 17:31:00,
2013-05-08 13:36:00,86.4,53.3,30.03,West,270,2.0,3.8,33,0.00,,,0.00,WSDL version 420,2013-05-08 17:36:00,
2013-05-08 13:41:00,86.5,53.2,30.03,East,96,3.1,3.6,32,0.00,,,0.00,WSDL version 420,2013-05-08 17:41:00,
2013-05-08 13:46:00,86.5,52.7,30.03,SSE,154,2.3,3.8,32,0.00,,,0.00,WSDL version 420,2013-05-08 17:46:00,
2013-05-08 13:51:00,86.5,53.4,30.03,NNW,338,1.3,3.8,32,0.00,,,0.00,WSDL version 420,2013-05-08 17:51:00,
2013-05-08 13:56:00,86.6,53.5,30.03,West,275,2.4,4.0,32,0.00,,,0.00,WSDL version 420,2013-05-08 17:56:00,
2013-05-08 14:01:00,86.3,52.1,30.03,NNW,347,2.4,4.0,31,0.00,,,0.00,WSDL version 420,2013-05-08 18:01:00,
2013-05-08 14:06:00,86.7,52.7,30.03,North,9,1.5,5.8,32,0.00,,,0.00,WSDL version 420,2013-05-08 18:06:00,
2013-05-08 14:11:00,86.9,52.4,30.03,NNE,19,2.7,5.8,30,0.00,,,0.00,WSDL version 420,2013-05-08 18:11:00,
2013-05-08 14:16:00,86.9,52.9,30.03,West,270,1.8,5.4,32,0.00,,,0.00,WSDL version 420,2013-05-08 18:16:00,
2013-05-08 14:21:00,87.1,53.5,30.03,WSW,248,1.5,5.4,32,0.00,,,0.00,WSDL version 420,2013-05-08 18:21:00,
2013-05-08 14:26:00,87.3,53.7,30.03,SSE,158,1.5,4.3,32,0.00,,,0.00,WSDL version 420,2013-05-08 18:26:00,
2013-05-08 14:31:00,87.5,54.0,30.03,West,259,0.6,4.3,32,0.00,,,0.00,WSDL version 420,2013-05-08 18:31:00,
2013-05-08 14:36:00,88.0,54.5,30.03,South,169,2.5,3.8,32,0.00,,,0.00,WSDL version 420,2013-05-08 18:36:00,
2013-05-08 14:41:00,88.2,54.6,30.03,North,11,1.9,4.3,32,0.00,,,0.00,WSDL version 420,2013-05-08 18:41:00,
2013-05-08 14:46:00,87.9,53.5,30.00,South,191,3.2,4.3,32,0.00,,,0.00,WSDL version 420,2013-05-08 18:46:00,
2013-05-08 14:51:00,88.3,54.0,30.00,SE,146,2.5,3.8,31,0.00,,,0.00,WSDL version 420,2013-05-08 18:51:00,
2013-05-08 14:56:00,88.4,54.2,30.00,NW,315,1.3,3.8,32,0.00,,,0.00,WSDL version 420,2013-05-08 18:56:00,
2013-05-08 15:01:00,88.1,52.8,30.00,West,270,1.5,3.6,30,0.00,,,0.00,WSDL version 420,2013-05-08 19:01:00,
2013-05-08 15:06:00,88.2,52.9,30.00,South,173,1.0,3.6,30,0.00,,,0.00,WSDL version 420,2013-05-08 19:06:00,
2013-05-08 15:11:00,88.3,52.9,30.00,South,169,1.9,2.5,30,0.00,,,0.00,WSDL version 420,2013-05-08 19:11:00,
2013-05-08 15:16:00,88.5,53.2,30.00,South,176,1.3,2.5,30,0.00,,,0.00,WSDL version 420,2013-05-08 19:16:00,
2013-05-08 15:21:00,88.8,53.8,30.00,South,183,1.0,6.0,30,0.00,,,0.00,WSDL version 420,2013-05-08 19:21:00,
2013-05-08 15:26:00,89.1,53.6,30.00,SSE,165,3.5,6.5,30,0.00,,,0.00,WSDL version 420,2013-05-08 19:26:00,
2013-05-08 15:31:00,89.1,53.6,29.97,WNW,300,1.3,6.5,30,0.00,,,0.00,WSDL version 420,2013-05-08 19:31:00,
2013-05-08 15:36:00,89.2,53.7,29.97,SSW,198,2.5,3.4,30,0.00,,,0.00,WSDL version 420,2013-05-08 19:36:00,
2013-05-08 15:41:00,89.4,53.9,29.97,SSW,203,2.9,3.8,30,0.00,,,0.00,WSDL version 420,2013-05-08 19:41:00,
2013-05-08 15:46:00,89.3,53.8,29.97,NW,304,2.7,3.8,30,0.00,,,0.00,WSDL version 420,2013-05-08 19:46:00,
2013-05-08 15:51:00,88.9,53.1,29.97,SE,128,2.7,4.3,29,0.00,,,0.00,WSDL version 420,2013-05-08 19:51:00,
2013-05-08 15:56:00,89.0,53.6,29.97,South,170,3.5,4.3,30,0.00,,,0.00,WSDL version 420,2013-05-08 19:56:00,
2013-05-08 16:01:00,89.3,53.9,29.97,West,270,0.8,3.6,30,0.00,,,0.00,WSDL version 420,2013-05-08 20:01:00,
2013-05-08 16:06:00,89.1,53.3,29.97,NNW,334,2.5,3.4,30,0.00,,,0.00,WSDL version 420,2013-05-08 20:06:00,
2013-05-08 16:11:00,89.0,53.6,29.97,WNW,296,2.1,3.4,30,0.00,,,0.00,WSDL version 420,2013-05-08 20:11:00,
2013-05-08 16:16:00,89.1,53.7,29.94,SSE,161,1.4,2.9,30,0.00,,,0.00,WSDL version 420,2013-05-08 20:16:00,
2013-05-08 16:21:00,89.2,53.8,29.94,South,183,1.7,3.4,30,0.00,,,0.00,WSDL version 420,2013-05-08 20:21:00,
2013-05-08 16:26:00,89.1,53.7,29.94,NW,304,0.8,3.4,30,0.00,,,0.00,WSDL version 420,2013-05-08 20:26:00,
2013-05-08 16:31:00,89.2,53.8,29.97,WSW,244,0.8,2.7,30,0.00,,,0.00,WSDL version 420,2013-05-08 20:31:00,
2013-05-08 16:36:00,88.8,53.7,29.97,South,180,0.0,2.7,30,0.00,,,0.00,WSDL version 420,2013-05-08 20:36:00,
2013-05-08 16:41:00,89.1,53.6,29.97,South,180,2.7,2.9,30,0.00,,,0.00,WSDL version 420,2013-05-08 20:41:00,
2013-05-08 16:46:00,89.8,54.2,29.97,SSW,194,1.8,2.9,30,0.00,,,0.00,WSDL version 420,2013-05-08 20:46:00,
2013-05-08 16:51:00,88.5,52.5,29.97,South,191,1.7,4.3,30,0.00,,,0.00,WSDL version 420,2013-05-08 20:51:00,
2013-05-08 16:56:00,88.7,53.4,29.97,SSW,203,0.9,4.3,30,0.00,,,0.00,WSDL version 420,2013-05-08 20:56:00,
2013-05-08 17:01:00,89.2,53.8,29.94,South,188,1.0,4.3,30,0.00,,,0.00,WSDL version 420,2013-05-08 21:01:00,
2013-05-08 17:06:00,89.4,53.9,29.94,ESE,113,1.4,4.3,30,0.00,,,0.00,WSDL version 420,2013-05-08 21:06:00,
2013-05-08 17:11:00,89.7,54.4,29.94,SW,225,0.0,4.3,31,0.00,,,0.00,WSDL version 420,2013-05-08 21:11:00,
2013-05-08 17:16:00,89.1,54.0,29.94,SW,225,1.6,4.3,30,0.00,,,0.00,WSDL version 420,2013-05-08 21:16:00,
2013-05-08 17:21:00,88.4,53.0,29.94,SW,225,1.6,2.2,30,0.00,,,0.00,WSDL version 420,2013-05-08 21:21:00,
2013-05-08 17:26:00,88.4,53.1,29.94,North,360,1.6,1.6,30,0.00,,,0.00,WSDL version 420,2013-05-08 21:26:00,
2013-05-08 17:31:00,88.1,52.8,29.97,NNW,338,1.6,1.6,30,0.00,,,0.00,WSDL version 420,2013-05-08 21:31:00,
2013-05-08 17:36:00,87.8,52.6,29.97,South,180,0.0,0.0,30,0.00,,,0.00,WSDL version 420,2013-05-08 21:36:00,
2013-05-08 17:41:00,87.2,52.0,29.97,East,90,2.0,3.4,30,0.00,,,0.00,WSDL version 420,2013-05-08 21:41:00,
2013-05-08 17:46:00,86.9,52.1,29.97,East,90,2.0,3.4,31,0.00,,,0.00,WSDL version 420,2013-05-08 21:46:00,
2013-05-08 17:51:00,86.5,51.6,29.97,NNE,23,0.0,3.4,30,0.00,,,0.00,WSDL version 420,2013-05-08 21:51:00,
2013-05-08 17:56:00,85.9,51.2,29.97,NNE,23,0.0,3.4,31,0.00,,,0.00,WSDL version 420,2013-05-08 21:56:00,
2013-05-08 18:01:00,85.4,51.4,29.97,NNE,23,0.0,0.0,31,0.00,,,0.00,WSDL version 420,2013-05-08 22:01:00,
2013-05-08 18:06:00,85.2,51.2,29.97,South,180,1.6,2.0,31,0.00,,,0.00,WSDL version 420,2013-05-08 22:06:00,
2013-05-08 18:11:00,84.8,50.8,29.97,South,180,1.6,2.0,31,0.00,,,0.00,WSDL version 420,2013-05-08 22:11:00,
2013-05-08 18:16:00,84.5,50.6,29.97,South,180,1.6,2.0,31,0.00,,,0.00,WSDL version 420,2013-05-08 22:16:00,
2013-05-08 18:21:00,84.1,50.2,29.97,South,180,0.0,2.0,31,0.00,,,0.00,WSDL version 420,2013-05-08 22:21:00,
2013-05-08 18:26:00,83.7,50.2,29.97,South,180,0.0,2.0,32,0.00,,,0.00,WSDL version 420,2013-05-08 22:26:00,
2013-05-08 18:31:00,83.2,50.3,29.97,South,180,0.0,0.0,32,0.00,,,0.00,WSDL version 420,2013-05-08 22:31:00,
2013-05-08 18:36:00,82.9,50.1,29.97,South,169,0.0,1.1,32,0.00,,,0.00,WSDL version 420,2013-05-08 22:36:00,
2013-05-08 18:41:00,82.6,49.8,29.97,South,180,1.1,1.3,32,0.00,,,0.00,WSDL version 420,2013-05-08 22:41:00,
2013-05-08 18:46:00,82.1,50.2,29.94,South,180,1.1,1.3,33,0.00,,,0.00,WSDL version 420,2013-05-08 22:46:00,
2013-05-08 18:51:00,81.8,49.9,29.94,South,180,1.1,1.3,33,0.00,,,0.00,WSDL version 420,2013-05-08 22:51:00,
2013-05-08 18:56:00,81.7,49.8,29.94,North,0,0.0,1.3,33,0.00,,,0.00,WSDL version 420,2013-05-08 22:56:00,
2013-05-08 19:01:00,81.3,50.1,29.97,North,0,0.0,1.3,34,0.00,,,0.00,WSDL version 420,2013-05-08 23:01:00,
2013-05-08 19:06:00,80.8,49.9,29.97,North,-999,-999.0,-999.0,34,0.00,,,0.00,WSDL version 420,2013-05-08 23:06:00,
2013-05-08 19:11:00,80.5,50.6,29.97,North,-999,-999.0,-999.0,36,0.00,,,0.00,WSDL version 420,2013-05-08 23:11:00,
2013-05-08 19:16:00,80.2,51.0,29.97,North,-999,-999.0,-999.0,36,0.00,,,0.00,WSDL version 420,2013-05-08 23:16:00,
2013-05-08 19:21:00,79.7,51.2,29.97,North,-999,-999.0,-999.0,37,0.00,,,0.00,WSDL version 420,2013-05-08 23:21:00,
2013-05-08 19:26:00,79.5,51.2,29.97,North,-999,-999.0,-999.0,37,0.00,,,0.00,WSDL version 420,2013-05-08 23:26:00,
2013-05-08 19:31:00,79.2,50.7,29.97,North,-999,-999.0,-999.0,37,0.00,,,0.00,WSDL version 420,2013-05-08 23:31:00,
2013-05-08 19:36:00,78.7,50.6,29.97,North,-999,-999.0,-999.0,38,0.00,,,0.00,WSDL version 420,2013-05-08 23:36:00,
2013-05-08 19:41:00,78.4,51.4,29.97,North,-999,-999.0,-999.0,39,0.00,,,0.00,WSDL version 420,2013-05-08 23:41:00,
2013-05-08 19:46:00,78.0,51.7,29.97,North,-999,-999.0,-999.0,40,0.00,,,0.00,WSDL version 420,2013-05-08 23:46:00,
2013-05-08 19:51:00,77.6,52.1,29.97,North,-999,-999.0,-999.0,41,0.00,,,0.00,WSDL version 420,2013-05-08 23:51:00,
2013-05-08 19:56:00,77.3,51.9,29.97,West,270,0.0,0.0,42,0.00,,,0.00,WSDL version 420,2013-05-08 23:56:00,
2013-05-08 20:01:00,76.9,52.4,29.97,West,270,0.0,0.0,43,0.00,,,0.00,WSDL version 420,2013-05-09 00:01:00,
2013-05-08 20:06:00,76.5,52.6,29.97,West,270,0.0,0.0,44,0.00,,,0.00,WSDL version 420,2013-05-09 00:06:00,
2013-05-08 20:11:00,76.0,52.4,29.97,North,0,0.0,0.0,43,0.00,,,0.00,WSDL version 420,2013-05-09 00:11:00,
2013-05-08 20:16:00,75.7,52.7,29.94,North,0,0.0,0.0,46,0.00,,,0.00,WSDL version 420,2013-05-09 00:16:00,
2013-05-08 20:21:00,75.3,53.4,29.94,North,-999,-999.0,-999.0,47,0.00,,,0.00,WSDL version 420,2013-05-09 00:21:00,
2013-05-08 20:26:00,75.0,53.0,29.94,ENE,68,0.0,0.0,47,0.00,,,0.00,WSDL version 420,2013-05-09 00:26:00,
2013-05-08 20:31:00,75.0,53.6,29.97,NE,45,0.0,0.0,47,0.00,,,0.00,WSDL version 420,2013-05-09 00:31:00,
2013-05-08 20:36:00,75.0,54.3,29.97,NE,45,0.0,0.0,49,0.00,,,0.00,WSDL version 420,2013-05-09 00:36:00,
2013-05-08 20:41:00,75.0,54.8,29.97,NE,45,0.0,0.0,50,0.00,,,0.00,WSDL version 420,2013-05-09 00:41:00,
2013-05-08 20:46:00,75.0,55.3,29.97,North,0,0.0,0.0,51,0.00,,,0.00,WSDL version 420,2013-05-09 00:46:00,
2013-05-08 20:51:00,75.0,56.0,29.97,North,0,0.0,0.0,52,0.00,,,0.00,WSDL version 420,2013-05-09 00:51:00,
2013-05-08 20:56:00,75.0,56.4,29.97,North,-999,-999.0,-999.0,53,0.00,,,0.00,WSDL version 420,2013-05-09 00:56:00,
2013-05-08 21:01:00,75.0,56.7,29.97,North,-999,-999.0,-999.0,53,0.00,,,0.00,WSDL version 420,2013-05-09 01:01:00,
2013-05-08 21:06:00,75.0,57.0,29.97,North,-999,-999.0,-999.0,54,0.00,,,0.00,WSDL version 420,2013-05-09 01:06:00,
2013-05-08 21:11:00,75.1,57.3,29.97,North,-999,-999.0,-999.0,54,0.00,,,0.00,WSDL version 420,2013-05-09 01:11:00,
2013-05-08 21:16:00,75.2,57.4,30.00,North,360,0.0,0.0,54,0.00,,,0.00,WSDL version 420,2013-05-09 01:16:00,
2013-05-08 21:21:00,75.2,57.9,30.00,North,360,0.0,0.0,55,0.00,,,0.00,WSDL version 420,2013-05-09 01:21:00,
2013-05-08 21:26:00,75.1,57.8,30.00,NNE,30,0.0,0.9,55,0.00,,,0.00,WSDL version 420,2013-05-09 01:26:00,
2013-05-08 21:31:00,75.2,57.9,30.03,North,0,0.0,0.9,55,0.00,,,0.00,WSDL version 420,2013-05-09 01:31:00,
2013-05-08 21:36:00,75.0,58.1,30.03,SSW,203,0.0,0.9,56,0.00,,,0.00,WSDL version 420,2013-05-09 01:36:00,
2013-05-08 21:41:00,75.0,58.4,30.03,SSE,158,0.0,1.1,56,0.00,,,0.00,WSDL version 420,2013-05-09 01:41:00,
2013-05-08 21:46:00,75.0,58.3,30.03,SE,135,0.0,1.1,56,0.00,,,0.00,WSDL version 420,2013-05-09 01:46:00,
2013-05-08 21:51:00,74.9,58.2,30.03,ESE,105,0.0,0.0,56,0.00,,,0.00,WSDL version 420,2013-05-09 01:51:00,
2013-05-08 21:56:00,74.8,58.6,30.03,SE,135,0.0,0.0,57,0.00,,,0.00,WSDL version 420,2013-05-09 01:56:00,
2013-05-08 22:01:00,74.8,58.5,30.03,South,180,0.0,0.0,57,0.00,,,0.00,WSDL version 420,2013-05-09 02:01:00,
2013-05-08 22:06:00,74.6,58.8,30.03,South,180,0.0,0.0,58,0.00,,,0.00,WSDL version 420,2013-05-09 02:06:00,
2013-05-08 22:11:00,74.5,58.9,30.03,South,180,0.0,0.0,59,0.00,,,0.00,WSDL version 420,2013-05-09 02:11:00,
2013-05-08 22:16:00,74.4,59.1,30.06,SE,143,0.0,0.0,59,0.00,,,0.00,WSDL version 420,2013-05-09 02:16:00,
2013-05-08 22:21:00,74.2,59.0,30.06,ENE,75,0.0,0.0,59,0.00,,,0.00,WSDL version 420,2013-05-09 02:21:00,
2013-05-08 22:26:00,74.0,59.3,30.06,East,83,0.0,0.0,60,0.00,,,0.00,WSDL version 420,2013-05-09 02:26:00,
2013-05-08 22:31:00,73.8,59.1,30.03,East,83,0.0,0.0,60,0.00,,,0.00,WSDL version 420,2013-05-09 02:31:00,
2013-05-08 22:36:00,73.5,59.5,30.03,ENE,68,0.0,0.0,62,0.00,,,0.00,WSDL version 420,2013-05-09 02:36:00,
2013-05-08 22:41:00,73.3,59.5,30.03,East,90,0.0,0.0,62,0.00,,,0.00,WSDL version 420,2013-05-09 02:41:00,
2013-05-08 22:46:00,73.2,59.7,30.03,East,90,0.0,0.0,63,0.00,,,0.00,WSDL version 420,2013-05-09 02:46:00,
2013-05-08 22:51:00,73.0,59.6,30.03,East,90,0.0,0.0,63,0.00,,,0.00,WSDL version 420,2013-05-09 02:51:00,
2013-05-08 23:01:00,72.5,59.6,30.00,SW,225,0.0,0.0,64,0.00,,,0.00,WSDL version 420,2013-05-09 03:01:00,
2013-05-08 23:06:00,72.2,59.5,30.00,SW,225,0.0,0.0,65,0.00,,,0.00,WSDL version 420,2013-05-09 03:06:00,
2013-05-08 23:11:00,72.1,59.6,30.00,SW,225,0.0,0.0,65,0.00,,,0.00,WSDL version 420,2013-05-09 03:11:00,
2013-05-08 23:16:00,71.9,59.5,30.00,SW,225,0.0,0.0,65,0.00,,,0.00,WSDL version 420,2013-05-09 03:16:00,
2013-05-08 23:21:00,71.7,59.6,30.00,North,0,0.0,0.0,66,0.00,,,0.00,WSDL version 420,2013-05-09 03:21:00,
2013-05-08 23:26:00,71.5,59.6,30.00,West,270,0.0,0.0,66,0.00,,,0.00,WSDL version 420,2013-05-09 03:26:00,
2013-05-08 23:31:00,71.1,59.5,30.03,West,270,0.0,0.0,67,0.00,,,0.00,WSDL version 420,2013-05-09 03:31:00,
2013-05-08 23:36:00,71.1,59.6,30.03,NW,315,0.0,0.0,67,0.00,,,0.00,WSDL version 420,2013-05-09 03:36:00,
2013-05-08 23:41:00,70.9,59.4,30.03,North,360,0.0,0.0,67,0.00,,,0.00,WSDL version 420,2013-05-09 03:41:00,
2013-05-08 23:46:00,70.7,59.7,30.03,North,360,0.0,0.0,68,0.00,,,0.00,WSDL version 420,2013-05-09 03:46:00,
2013-05-08 23:51:00,70.6,59.5,30.03,North,360,0.0,0.0,68,0.00,,,0.00,WSDL version 420,2013-05-09 03:51:00,
2013-05-08 23:56:00,70.5,59.5,30.03,North,0,0.0,0.0,68,0.00,,,0.00,WSDL version 420,2013-05-09 03:56:00,